#timestamp,LO_Frequency,Hit 
1504155615.4,286047004.2,N
1504155635.2,286047001.0,N
1504155655.0,286047002.4,N
1504155655.9,286047002.4,N
1504155675.8,286047002.5,N
1504155695.6,286047002.2,N
1504155715.4,286047005.5,N
1504155735.2,286047005.2,N
1504155755.1,286047003.8,N
1504155756.0,286047003.8,N
1504155775.8,286047005.1,N
1504155795.6,286047007.1,N
1504155815.5,286047008.8,N
1504155835.3,286047008.5,N
1504155855.1,286047007.9,N
1504155875.9,286047006.4,N
1504155895.7,286047009.0,N
1504155915.5,286047008.4,N
1504155935.4,286047008.1,N
1504155955.2,286047009.0,N
1504155975.0,286047009.0,N
1504155975.9,286047009.0,N
1504155995.8,286047008.2,N
1504156015.6,286047008.6,N
1504156035.4,286047008.5,N
1504156055.3,286047007.6,N
1504156075.1,286047007.2,N
1504156076.0,286047007.2,N
1504156095.8,286047004.6,N
1504156115.7,286047006.8,N
1504156135.5,286047005.2,N
1504156155.3,286047003.7,N
1504156175.2,286047003.8,N
1504156195.9,286047005.6,N
1504156215.7,286047006.0,N
1504156235.6,286047002.6,N
1504156255.4,286047001.5,N
1504156275.2,286047001.9,N
1504156295.0,286047003.1,N
1504156296.0,286047003.1,N
1504156315.8,286047001.8,N
1504156335.6,286047003.6,N
1504156355.4,286047002.0,N
1504156375.3,286047001.7,N
1504156395.1,286047002.5,N
1504156415.8,286047000.1,N
1504156435.7,286046999.9,N
1504156455.5,286046999.8,N
1504156475.3,286047000.6,N
1504156495.2,286046999.8,N
1504156515.9,286047003.9,N
1504156535.7,286047001.7,N
1504156555.6,286047001.1,N
1504156575.4,286047000.4,N
1504156595.2,286047002.2,N
1504156615.1,286047000.5,N
1504156616.0,286047000.5,N
1504156635.8,286046999.1,N
1504156655.6,286047000.0,N
1504156675.5,286047002.7,N
1504156695.3,286047002.3,N
1504156715.1,286046999.9,N
1504156735.9,286047002.3,N
1504156755.7,286047001.9,N
1504156775.5,286047008.8,P
1504156795.4,286047007.5,N
1504156815.2,286047002.0,N
1504156835.0,286046998.4,N
1504156835.9,286046998.4,N
1504156855.8,286047000.0,N
1504156875.6,286047002.8,N
1504156895.4,286047001.5,N
1504156915.2,286047002.0,N
1504156935.1,286046998.5,N
1504156936.0,286046998.5,N
1504156955.8,286046998.4,N
1504156975.6,286047002.3,N
1504156995.5,286047003.3,N
1504157015.3,286047003.0,N
1504157035.1,286047004.0,N
1504157055.9,286047001.2,N
1504157075.7,286046999.8,N
1504157095.5,286047004.4,N
1504157115.4,286047001.8,N
1504157135.2,286047001.3,N
1504157155.0,286047001.1,N
1504157155.9,286047001.1,N
1504157175.8,286047001.0,N
1504157195.6,286046996.5,N
1504157215.4,286046998.6,N
1504157235.3,286046998.4,N
1504157255.1,286047000.5,N
1504157256.0,286047000.5,N
1504157275.8,286046998.3,N
1504157295.7,286046998.8,N
1504157315.5,286046998.8,N
1504157335.3,286046998.6,N
1504157355.2,286046998.0,N
1504157375.9,286046997.8,N
1504157395.7,286046999.3,N
1504157415.6,286046996.8,N
1504157435.4,286046999.3,N
1504157455.2,286046999.6,N
1504157475.1,286046997.7,N
1504157476.0,286046997.7,N
1504157495.8,286046995.7,N
1504157515.6,286047000.8,N
1504157535.5,286047000.0,N
1504157555.3,286047000.7,N
1504157575.1,286047000.8,N
1504157595.9,286046998.3,N
1504157615.7,286046998.3,N
1504157635.5,286046997.1,N
1504157655.3,286046996.5,N
1504157675.2,286046997.0,N
1504157695.0,286046995.3,P
1504157695.9,286046995.3,N
1504157715.8,286046997.1,N
1504157735.6,286046998.6,N
1504157755.4,286046998.3,N
1504157775.3,286047000.6,N
1504157795.1,286046996.6,N
1504157796.0,286046996.6,N
1504157815.8,286046999.3,N
1504157835.7,286047001.0,N
1504157855.5,286047000.8,N
1504157875.3,286047000.7,N
1504157895.2,286047001.0,N
1504157915.9,286047001.0,N
1504157935.7,286047001.9,N
1504157955.6,286047004.6,N
1504157975.4,286047005.5,N
1504157995.2,286047003.4,N
1504158015.0,286047003.2,N
1504158015.9,286047003.2,N
1504158035.8,286047005.2,N
1504158055.6,286047004.8,N
1504158075.4,286047003.4,N
1504158095.3,286047005.9,N
1504158115.1,286047006.9,N
1504158135.8,286047004.5,N
1504158155.7,286047006.6,N
1504158175.5,286047008.1,N
1504158195.3,286047007.8,N
1504158215.2,286047004.7,N
1504158235.9,286047005.3,N
1504158255.7,286047006.8,N
1504158275.6,286047007.2,N
1504158295.4,286047004.9,N
1504158315.2,286047003.6,N
1504158335.0,286047003.3,N
1504158335.9,286047003.3,N
1504158355.8,286047005.5,N
1504158375.6,286047003.4,N
1504158395.4,286047005.7,N
1504158415.3,286047001.5,N
1504158435.1,286047004.1,N
1504158455.8,286047003.7,N
1504158475.7,286047002.3,N
1504158495.5,286047005.7,P
1504158515.3,286046998.7,N
1504158535.2,286046997.3,N
1504158555.0,286046999.1,N
1504158555.9,286046999.1,N
1504158575.7,286046997.0,N
1504158595.6,286047001.2,N
1504158615.4,286046999.9,N
1504158635.2,286047000.1,N
1504158655.1,286047002.6,N
1504158656.0,286047002.6,N
1504158675.8,286047000.6,N
1504158695.6,286047001.1,N
1504158715.5,286046997.7,N
1504158735.3,286046996.5,N
1504158755.1,286046997.6,N
1504158775.9,286046993.3,N
1504158795.7,286046994.6,N
1504158815.5,286046993.5,N
1504158835.3,286046996.0,N
1504158855.2,286046994.9,N
1504158875.0,286046997.8,N
1504158875.9,286046997.8,N
1504158895.7,286046998.3,N
1504158915.6,286047001.1,N
1504158935.4,286047000.7,N
1504158955.2,286046998.8,N
1504158975.1,286046998.6,N
1504158976.0,286046998.6,N
1504158995.8,286046999.4,N
1504159015.6,286046996.8,N
1504159035.5,286046999.1,N
1504159055.3,286046997.8,N
1504159075.1,286046994.9,N
1504159095.9,286046995.9,N
1504159115.7,286046996.4,N
1504159135.5,286046993.7,N
1504159155.4,286046996.2,N
1504159175.2,286046993.8,N
1504159195.0,286046992.0,P
1504159195.9,286046992.0,N
